Location: Gälforsberget
(66.6500°N, 22.4167°E)
Time: 19:30:27
(UTC+00:00)

ARIANE 5 R/B - Pass Details

Date: 11 April 2026
Orbit: 614 x 648 km, 98.0° (Epoch: 14 September)

Event Time Altitude Azimuth Distance (km) Brightness Sun altitude
Exits shadow 22:40:11 16° 226° (SW) 1,652 4.3 -14.7°
Maximum altitude 22:42:38 25° 271° (W) 1,280 4.1 -14.7°
Drops below altitude 10° 22:46:14 10° 326° (NW) 2,006 6.0 -14.7°
Sets 22:48:47 0° 340° (NNW) 2,922 7.3 -14.7°
